Regional Weather Roundup
Issued by NWS Little Rock, AR

Home | Current Version | Previous Version | Graphics & Text | Print | Product List | Glossary On
Versions: 1 2 3 4 5 6 7 8 9 10 11 12 13 14 15 16 17 18 19 20 21 22 23 24 25 26 27 28 29 30 31 32 33 34 35 36 37 38 39 40 41 42 43 44 45 46 47 48 49 50
000
ASUS44 KLZK 230505
RWRLZK

WEATHER ROUNDUP FOR ARKANSAS
NATIONAL WEATHER SERVICE LITTLE ROCK AR
1200 AM CDT TUE MAY 23 2017

NOTE: "FAIR" INDICATES FEW OR NO CLOUDS BELOW 12,000 FEET WITH NO
SIGNIFICANT WEATHER AND/OR OBSTRUCTIONS TO VISIBILITY.

ARZ001-003-010-029-230600-
NORTHWEST ARKANSAS

CITY           SKY/WX    TMP DP  RH WIND       PRES   REMARKS
FAYETTEVILLE   MOCLDY    60  57  89 S5        29.92F
FORT SMITH     LGT RAIN  66  56  70 SE7       29.89F
HARRISON       PTCLDY    59  54  83 SE6       29.93F
BENTONVILLE    CLOUDY    64  54  68 CALM      29.92F
ROGERS         CLOUDY    64  55  72 SW6       29.93F
SILOAM SPGS    MOCLDY    61  54  77 S6        29.92F
HIGHFILL       PTCLDY    63  56  78 S3        29.92F
$$

ARZ004-005-016-230600-
NORTH CENTRAL ARKANSAS

CITY           SKY/WX    TMP DP  RH WIND       PRES   REMARKS
BATESVILLE     CLOUDY    57  54  88 CALM      29.94S
FLIPPIN        CLOUDY    63  48  59 CALM      29.90F
MTN HOME       CLOUDY    59  53  80 S5        29.92F
$$

ARZ040-041-230600-
WEST CENTRAL ARKANSAS

CITY           SKY/WX    TMP DP  RH WIND       PRES   REMARKS
MENA           CLOUDY    61  59  94 CALM      29.95S
MOUNT IDA      CLOUDY    58  56  93 CALM      29.91F
$$

ARZ009-017-025-026-028-230600-
NORTHEAST ARKANSAS

CITY           SKY/WX    TMP DP  RH WIND       PRES   REMARKS
JONESBORO      CLOUDY    59  55  87 CALM      29.92S
NEWPORT        MOCLDY    62  59  90 W3        29.93S
WALNUT RIDGE   MOCLDY    64  54  68 W3        29.92F
BLYTHEVILLE    CLOUDY    66  57  72 CALM      29.92F
$$

ARZ022-023-033-042-044-230600-
CENTRAL ARKANSAS

CITY           SKY/WX    TMP DP  RH WIND       PRES   REMARKS
LITTLE ROCK    CLOUDY    62  59  90 CALM      29.93F
JACKSONVILLE   PTCLDY    59  58  96 CALM      29.92F
CONWAY           N/A     64  59  82 S3        29.91F
SEARCY         CLOUDY    59  59 100 CALM      29.94F
HOT SPRINGS    PTCLDY    61  57  87 CALM      29.93F
RUSSELLVILLE   CLOUDY    63  54  72 SE3       29.91F
CLINTON        CLOUDY    61  57  88 CALM      29.94S
$$

ARZ036-230600-
EAST ARKANSAS

CITY           SKY/WX    TMP DP  RH WIND       PRES   REMARKS
WEST MEMPHIS   CLOUDY    65  60  84 CALM      29.90F
$$

ARZ050-053-066-070-073-230600-
SOUTHWEST ARKANSAS

CITY           SKY/WX    TMP DP  RH WIND       PRES   REMARKS
ARKADELPHIA      N/A     64  60  87 CALM      29.94F
CAMDEN         CLOUDY    63  59  88 CALM      29.94R
TEXARKANA      CLOUDY    61  59  93 CALM      29.94S
EL DORADO      CLOUDY    62  61  96 N5        29.93S
DE QUEEN       CLOUDY    61  60  97 CALM      29.92F
$$

ARZ056-057-069-230600-
SOUTHEAST ARKANSAS

CITY           SKY/WX    TMP DP  RH WIND       PRES   REMARKS
PINE BLUFF     CLOUDY    64  61  90 CALM      29.93F
STUTTGART      CLOUDY    66  52  59 CALM      29.93F
MONTICELLO     CLOUDY    63  60  90 NW3       29.93S

$$





USA.gov is the U.S. government's official web portal to all federal, state and local government web resources and services.